Погода в Погореловке

Россия / Белгородская область     50°48′13″N   37°09′36″E
темп.,
°C
ветер,
м/с
пор.,
м/с
влажн.,
%
обл.,
%
осадки,
мм/ч
давл.,
гПа
погр.,
м
13 апреля, вт
вт1300:00+12юв347171 0.0 102356
03:00+11вюв237956 0.0 102328
06:00+9вюв498360 0.0 1023172
09:00+14вюв5963100 0.0 1023365
12:00+17юв7105285 0.0 10211109
15:00+18юв71149100 0.0 10201659
18:00+15юв6116687 0.1 10201197
21:00+12ююв511836 0.1 1021490
14 апреля, ср
ср1400:00+10ю2591100 0.0 1021202
03:00+10ююв2488100 0.1 1021183
06:00+9в229074 0.1 102027
09:00+12в2275100 0.1 1019374
12:00+15ююв236989 0.6 1018895
15:00+15ююв5665100 1.9 10171227
18:00+14юз2369100 0.7 1016239
21:00+11сз238178 0.9 101650
15 апреля, чт
чт1500:00+10ссв2384100 0.0 101552
03:00+10ссз118498 0.6 101524
06:00+9юз11863 0.0 101413
09:00+12юз3373100 0.0 1015425
12:00+15ююз4454100 0.0 10141281
15:00+16ю554962 0.0 10141682
18:00+15ююв3656100 0.0 1013458
21:00+11юз3584100 0.6 1014214
16 апреля, пт
пт1600:00+11ю2884100 0.8 1014559
03:00+10юв368755 1.9 1014339
06:00+9ююв2492100 0.2 1014198
09:00+11ю567596 0.3 1015752
12:00+13ю5757100 0.1 10151625
15:00+11ююз5760100 0.1 10161159
18:00+11юз555912 0.0 1016766
21:00+8зюз24721 0.0 101764
17 апреля, сб
сб1700:00+6с117664 0.0 101810
03:00+6с2275100 0.0 101823
06:00+6ссв2279100 0.0 101829
09:00+8сз2371100 0.1 1018591
12:00+10сз4563100 0.1 10191223
15:00+10сз1268100 0.4 1019774
18:00+10св3370100 0.1 1020338
21:00+7всв3585100 0.1 1021113